Tracking 20721 objects as of 31-May-2020
HD Live streaming from Space Station
objects crossing your sky now
Track the CREW DRAGON and SPACE STATION

FALCON 9 R/B

Track FALCON 9 R/B now!


NORAD ID: 44187
Int'l Code: 2019-021B
Perigee: 330.8 km
Apogee: 88,301.5 km
Inclination: 22.2 °
Period: 1,892.8 minutes
Semi major axis: 50687 km
RCS: Unknown
Launch date: April 11, 2019
Source: United States (US)
Launch site: AIR FORCE EASTERN TEST RANGE (AFETR)

Note: This is a ROCKET BODY
aabbcc
Your satellite tracking list
Your tracking list is empty




NASA's NSSDC Master Catalog

Two Line Element Set (TLE):
1 44187U 19021B   19338.24213479 -.00009870 +00000-0 -55682-1 0  9996
2 44187 022.2028 346.7096 8677813 225.3125 020.2575 00.76077466001765
Source of the keplerian elements: AFSPC